QPF
0.04 0.07 0.09 0.07 0.05 0.04 0.05 0.06 0.06 0.06 0.08 0.07 0.07 0.11 0.11 0.08 0.06 0.04 0.03 0.04 0.04 0.04 0.05 0.06 0.05 0.06 0.08 0.07 0.05 0.05 0.06 0.07 0.06 0.06 0.04 0.03 0.05 0.05 0.04 0.04 0.05 0.05 0.05
0.04 0.05 0.05 0.05 0.05 0.05 0.05 0.06 0.05 0.05 0.06 0.06 0.07 0.08 0.08 0.06 0.04 0.04 0.04 0.03 0.03 0.03 0.03 0.04 0.05 0.06 0.07 0.06 0.05 0.05 0.05 0.07 0.08 0.08 0.06 0.04 0.05 0.06 0.05 0.06 0.07 0.07 0.08
0.04 0.04 0.04 0.03 0.04 0.06 0.06 0.06 0.05 0.05 0.06 0.06 0.08 0.08 0.06 0.06 0.04 0.07 0.06 0.04 0.03 0.04 0.05 0.05 0.06 0.07 0.08 0.07 0.06 0.04 0.04 0.05 0.06 0.07 0.07 0.06 0.04 0.04 0.04 0.07 0.06 0.06 0.06
0.03 0.04 0.03 0.03 0.04 0.09 0.10 0.08 0.06 0.07 0.08 0.08 0.08 0.07 0.06 0.07 0.05 0.08 0.07 0.05 0.05 0.05 0.07 0.10 0.09 0.08 0.09 0.08 0.07 0.05 0.05 0.06 0.09 0.08 0.06 0.05 0.04 0.03 0.03 0.05 0.06 0.05 0.05
0.03 0.04 0.04 0.04 0.04 0.09 0.16 0.13 0.08 0.08 0.09 0.10 0.07 0.06 0.05 0.06 0.05 0.06 0.06 0.05 0.05 0.05 0.05 0.07 0.10 0.09 0.09 0.07 0.07 0.07 0.07 0.08 0.11 0.10 0.08 0.06 0.04 0.03 0.03 0.04 0.05 0.05 0.05
0.03 0.05 0.04 0.04 0.05 0.09 0.16 0.17 0.13 0.11 0.11 0.11 0.08 0.05 0.04 0.04 0.05 0.05 0.04 0.03 0.04 0.04 0.03 0.03 0.06 0.11 0.10 0.07 0.06 0.06 0.07 0.08 0.10 0.09 0.08 0.06 0.05 0.04 0.03 0.04 0.05 0.06 0.05
0.02 0.04 0.04 0.05 0.06 0.09 0.12 0.13 0.13 0.12 0.12 0.11 0.08 0.06 0.04 0.03 0.04 0.04 0.03 0.03 0.03 0.03 0.03 0.02 0.02 0.06 0.10 0.09 0.05 0.05 0.07 0.07 0.08 0.08 0.09 0.08 0.07 0.05 0.04 0.04 0.04 0.04 0.05
0.02 0.03 0.05 0.05 0.05 0.07 0.08 0.09 0.09 0.09 0.08 0.08 0.08 0.06 0.05 0.05 0.04 0.02 0.02 0.03 0.02 0.04 0.03 0.02 0.03 0.03 0.06 0.10 0.08 0.05 0.05 0.06 0.08 0.08 0.08 0.09 0.10 0.07 0.06 0.05 0.04 0.03 0.04
0.02 0.03 0.04 0.04 0.04 0.05 0.06 0.07 0.09 0.07 0.07 0.08 0.08 0.07 0.06 0.06 0.05 0.04 0.03 0.03 0.03 0.04 0.04 0.04 0.03 0.03 0.03 0.06 0.10 0.08 0.07 0.08 0.12 0.09 0.08 0.09 0.10 0.09 0.07 0.06 0.04 0.03 0.03
0.02 0.02 0.03 0.04 0.04 0.05 0.05 0.05 0.07 0.10 0.10 0.09 0.08 0.06 0.05 0.05 0.06 0.07 0.07 0.05 0.03 0.04 0.04 0.04 0.03 0.03 0.03 0.04 0.07 0.09 0.07 0.06 0.08 0.08 0.07 0.08 0.09 0.09 0.07 0.06 0.05 0.04 0.04
0.03 0.03 0.04 0.05 0.05 0.04 0.04 0.05 0.06 0.08 0.07 0.07 0.06 0.07 0.08 0.08 0.08 0.06 0.07 0.08 0.06 0.06 0.04 0.04 0.03 0.03 0.03 0.04 0.05 0.04 0.04 0.05 0.07 0.07 0.06 0.03 0.05 0.08 0.10 0.09 0.06 0.06 0.06
0.04 0.03 0.03 0.04 0.04 0.04 0.04 0.05 0.07 0.07 0.06 0.06 0.05 0.05 0.06 0.06 0.08 0.07 0.07 0.10 0.09 0.06 0.04 0.03 0.03 0.02 0.02 0.03 0.03 0.03 0.02 0.03 0.05 0.07 0.08 0.05 0.03 0.04 0.07 0.10 0.09 0.08 0.08
0.03 0.03 0.03 0.04 0.03 0.03 0.04 0.05 0.06 0.06 0.06 0.06 0.06 0.06 0.06 0.04 0.05 0.05 0.06 0.07 0.07 0.07 0.04 0.03 0.02 0.02 0.02 0.03 0.02 0.02 0.01 0.02 0.03 0.06 0.07 0.08 0.06 0.05 0.04 0.05 0.07 0.08 0.07
0.02 0.02 0.04 0.04 0.03 0.03 0.03 0.04 0.05 0.05 0.05 0.06 0.05 0.06 0.05 0.04 0.04 0.04 0.03 0.03 0.03 0.03 0.03 0.02 0.02 0.02 0.02 0.03 0.02 0.01 0.01 0.02 0.03 0.04 0.05 0.05 0.06 0.06 0.06 0.06 0.07 0.10 0.10
0.02 0.02 0.03 0.04 0.03 0.03 0.03 0.04 0.04 0.04 0.04 0.04 0.05 0.05 0.03 0.03 0.03 0.02 0.02 0.02 0.02 0.03 0.02 0.02 0.02 0.02 0.03 0.03 0.02 0.02 0.02 0.02 0.03 0.04 0.03 0.03 0.03 0.03 0.05 0.06 0.06 0.08 0.11
0.02 0.02 0.03 0.04 0.04 0.03 0.04 0.03 0.03 0.03 0.03 0.03 0.03 0.02 0.02 0.01 0.01 0.01 0.01 0.01 0.02 0.03 0.03 0.02 0.02 0.01 0.02 0.02 0.03 0.02 0.02 0.03 0.02 0.04 0.03 0.03 0.02 0.01 0.02 0.03 0.04 0.06 0.07
0.02 0.04 0.05 0.04 0.04 0.03 0.03 0.04 0.03 0.03 0.03 0.04 0.03 0.02 0.02 0.01 0.01 0.01 0.01 0.01 0.02 0.02 0.02 0.01 0.01 0.01 0.01 0.02 0.03 0.03 0.03 0.03 0.02 0.03 0.04 0.04 0.02 0.02 0.03 0.02 0.02 0.03 0.06
0.04 0.03 0.03 0.02 0.03 0.03 0.04 0.03 0.03 0.03 0.02 0.02 0.02 0.02 0.02 0.01 0.01 0.01 0.01 0.01 0.01 0.02 0.01 0.01 0.01 0.01 0.01 0.01 0.02 0.02 0.01 0.02 0.02 0.03 0.04 0.05 0.03 0.02 0.03 0.04 0.04 0.04 0.03
0.02 0.02 0.01 0.02 0.02 0.03 0.04 0.04 0.03 0.03 0.02 0.01 0.01 0.01 0.02 0.02 0.02 0.01 0.01 0.01 0.01 0.01 0.01 0.01 0.01 0.01 0.00 0.01 0.01 0.01 0.01 0.02 0.01 0.02 0.03 0.05 0.04 0.01 0.01 0.02 0.03 0.05 0.05
0.01 0.01 0.02 0.03 0.03 0.03 0.05 0.06 0.03 0.02 0.02 0.01 0.01 0.01 0.01 0.02 0.02 0.02 0.01 0.01 0.01 0.01 0.01 0.01 0.01 0.01 0.01 0.01 0.01 0.01 0.01 0.01 0.01 0.02 0.03 0.04 0.06 0.02 0.01 0.01 0.01 0.02 0.04
0.01 0.02 0.03 0.04 0.04 0.03 0.04 0.04 0.03 0.02 0.03 0.02 0.02 0.01 0.01 0.01 0.01 0.01 0.01 0.01 0.01 0.01 0.01 0.01 0.01 0.01 0.01 0.01 0.01 0.01 0.02 0.02 0.02 0.02 0.04 0.04 0.07 0.06 0.02 0.01 0.01 0.01 0.01
0.04 0.04 0.04 0.03 0.03 0.03 0.02 0.01 0.01 0.02 0.03 0.03 0.02 0.02 0.01 0.00 0.01 0.01 0.01 0.01 0.01 0.01 0.01 0.01 0.01 0.02 0.02 0.01 0.02 0.02 0.02 0.03 0.02 0.02 0.04 0.04 0.05 0.09 0.05 0.02 0.02 0.01 0.01
0.04 0.04 0.04 0.03 0.04 0.03 0.02 0.02 0.02 0.02 0.02 0.03 0.03 0.02 0.02 0.01 0.01 0.01 0.01 0.00 0.00 0.00 0.00 0.00 0.01 0.01 0.02 0.02 0.02 0.02 0.02 0.03 0.03 0.03 0.04 0.04 0.04 0.06 0.08 0.04 0.02 0.01 0.01
0.03 0.03 0.03 0.03 0.03 0.02 0.02 0.02 0.02 0.01 0.02 0.02 0.03 0.03 0.03 0.03 0.02 0.01 0.01 0.01 0.00 0.00 0.00 0.00 0.00 0.01 0.01 0.02 0.02 0.02 0.03 0.04 0.04 0.03 0.03 0.04 0.04 0.03 0.05 0.07 0.04 0.02 0.01
0.03 0.03 0.03 0.02 0.02 0.02 0.02 0.01 0.02 0.01 0.01 0.02 0.02 0.02 0.02 0.03 0.03 0.02 0.02 0.02 0.01 0.01 0.00 0.00 0.00 0.00 0.00 0.00 0.01 0.02 0.03 0.03 0.04 0.03 0.03 0.03 0.03 0.03 0.03 0.05 0.06 0.05 0.03
0.04 0.03 0.02 0.02 0.02 0.03 0.02 0.02 0.02 0.02 0.02 0.02 0.02 0.02 0.01 0.01 0.02 0.02 0.02 0.02 0.01 0.01 0.01 0.00 0.00 0.00 0.00 0.00 0.00 0.01 0.03 0.03 0.03 0.03 0.02 0.02 0.02 0.03 0.03 0.04 0.05 0.06 0.07
MSLP
1016.27 1016.22 1016.10 1015.95 1015.79 1015.67 1015.59 1015.57 1015.58 1015.62 1015.65 1015.66 1015.65 1015.61 1015.58 1015.57 1015.61 1015.69 1015.81 1015.95 1016.06 1016.13 1016.13 1016.04 1015.89 1015.68 1015.47 1015.30 1015.18 1015.15 1015.20 1015.32 1015.49 1015.69 1015.89 1016.08 1016.25 1016.41 1016.54 1016.66 1016.77 1016.87 1016.95
1016.25 1016.20 1016.09 1015.95 1015.82 1015.73 1015.69 1015.71 1015.79 1015.89 1016.00 1016.09 1016.15 1016.18 1016.18 1016.19 1016.21 1016.25 1016.32 1016.39 1016.46 1016.49 1016.48 1016.41 1016.28 1016.13 1015.97 1015.83 1015.74 1015.70 1015.72 1015.80 1015.92 1016.05 1016.20 1016.34 1016.47 1016.59 1016.69 1016.77 1016.84 1016.89 1016.93
1016.22 1016.20 1016.12 1016.03 1015.94 1015.90 1015.91 1015.99 1016.12 1016.28 1016.45 1016.61 1016.73 1016.82 1016.86 1016.88 1016.89 1016.90 1016.91 1016.93 1016.94 1016.94 1016.92 1016.86 1016.78 1016.68 1016.58 1016.49 1016.43 1016.40 1016.41 1016.46 1016.52 1016.61 1016.69 1016.78 1016.86 1016.93 1016.98 1017.02 1017.04 1017.04 1017.02
1016.15 1016.17 1016.15 1016.12 1016.10 1016.11 1016.17 1016.29 1016.46 1016.67 1016.90 1017.11 1017.30 1017.44 1017.53 1017.58 1017.59 1017.58 1017.56 1017.54 1017.51 1017.48 1017.44 1017.39 1017.34 1017.29 1017.24 1017.20 1017.18 1017.17 1017.17 1017.19 1017.23 1017.26 1017.30 1017.34 1017.37 1017.40 1017.41 1017.40 1017.37 1017.32 1017.25
1015.99 1016.06 1016.11 1016.15 1016.20 1016.27 1016.38 1016.53 1016.73 1016.97 1017.23 1017.49 1017.73 1017.93 1018.08 1018.18 1018.23 1018.24 1018.21 1018.17 1018.12 1018.07 1018.02 1017.97 1017.94 1017.92 1017.91 1017.90 1017.91 1017.92 1017.93 1017.94 1017.95 1017.96 1017.97 1017.97 1017.96 1017.95 1017.92 1017.87 1017.80 1017.71 1017.59
1015.73 1015.86 1015.98 1016.09 1016.20 1016.32 1016.46 1016.64 1016.85 1017.10 1017.38 1017.67 1017.96 1018.22 1018.45 1018.62 1018.74 1018.80 1018.81 1018.78 1018.73 1018.67 1018.62 1018.57 1018.54 1018.53 1018.54 1018.56 1018.58 1018.60 1018.62 1018.63 1018.64 1018.64 1018.63 1018.61 1018.58 1018.55 1018.49 1018.41 1018.31 1018.18 1018.04
1015.40 1015.57 1015.74 1015.91 1016.08 1016.23 1016.40 1016.57 1016.78 1017.02 1017.31 1017.62 1017.95 1018.28 1018.59 1018.85 1019.06 1019.20 1019.28 1019.31 1019.29 1019.25 1019.20 1019.15 1019.12 1019.11 1019.12 1019.14 1019.18 1019.21 1019.24 1019.26 1019.27 1019.27 1019.26 1019.24 1019.20 1019.15 1019.08 1018.99 1018.87 1018.72 1018.55
1015.03 1015.23 1015.44 1015.65 1015.85 1016.03 1016.20 1016.37 1016.56 1016.78 1017.05 1017.37 1017.73 1018.11 1018.50 1018.86 1019.17 1019.42 1019.59 1019.69 1019.74 1019.74 1019.71 1019.68 1019.66 1019.64 1019.65 1019.68 1019.72 1019.76 1019.80 1019.83 1019.85 1019.87 1019.86 1019.85 1019.81 1019.76 1019.68 1019.57 1019.44 1019.29 1019.11
1014.68 1014.88 1015.10 1015.33 1015.55 1015.75 1015.92 1016.07 1016.24 1016.43 1016.68 1016.99 1017.36 1017.78 1018.22 1018.66 1019.07 1019.42 1019.70 1019.90 1020.03 1020.09 1020.12 1020.12 1020.11 1020.12 1020.13 1020.17 1020.21 1020.26 1020.32 1020.37 1020.41 1020.44 1020.45 1020.44 1020.41 1020.35 1020.27 1020.16 1020.02 1019.86 1019.69
1014.38 1014.56 1014.79 1015.02 1015.25 1015.45 1015.62 1015.76 1015.90 1016.07 1016.28 1016.56 1016.92 1017.34 1017.81 1018.31 1018.79 1019.23 1019.60 1019.90 1020.12 1020.28 1020.37 1020.43 1020.47 1020.51 1020.56 1020.61 1020.68 1020.75 1020.83 1020.90 1020.96 1021.01 1021.03 1021.03 1021.01 1020.95 1020.86 1020.74 1020.60 1020.43 1020.26
1014.13 1014.29 1014.50 1014.74 1014.97 1015.18 1015.35 1015.49 1015.61 1015.75 1015.92 1016.17 1016.49 1016.89 1017.35 1017.86 1018.37 1018.87 1019.32 1019.71 1020.02 1020.27 1020.46 1020.60 1020.71 1020.81 1020.90 1021.00 1021.11 1021.22 1021.33 1021.43 1021.52 1021.58 1021.62 1021.63 1021.60 1021.54 1021.45 1021.32 1021.17 1020.99 1020.81
1013.90 1014.03 1014.24 1014.47 1014.71 1014.94 1015.12 1015.27 1015.39 1015.51 1015.65 1015.85 1016.11 1016.46 1016.89 1017.37 1017.88 1018.40 1018.90 1019.35 1019.75 1020.09 1020.37 1020.61 1020.81 1020.99 1021.16 1021.32 1021.48 1021.64 1021.79 1021.92 1022.04 1022.13 1022.19 1022.21 1022.19 1022.13 1022.03 1021.89 1021.72 1021.54 1021.34
1013.63 1013.76 1013.95 1014.20 1014.46 1014.71 1014.92 1015.09 1015.23 1015.34 1015.46 1015.61 1015.82 1016.10 1016.46 1016.88 1017.36 1017.87 1018.38 1018.87 1019.34 1019.76 1020.14 1020.48 1020.78 1021.05 1021.30 1021.54 1021.76 1021.97 1022.17 1022.35 1022.50 1022.62 1022.70 1022.74 1022.73 1022.68 1022.58 1022.43 1022.25 1022.06 1021.85
1013.28 1013.41 1013.62 1013.88 1014.17 1014.46 1014.71 1014.93 1015.09 1015.22 1015.33 1015.45 1015.60 1015.81 1016.09 1016.44 1016.86 1017.33 1017.83 1018.35 1018.86 1019.34 1019.80 1020.23 1020.62 1020.98 1021.32 1021.62 1021.91 1022.18 1022.42 1022.64 1022.83 1022.99 1023.10 1023.17 1023.19 1023.15 1023.07 1022.93 1022.75 1022.54 1022.32
1012.83 1012.98 1013.20 1013.48 1013.81 1014.14 1014.45 1014.72 1014.93 1015.08 1015.20 1015.31 1015.42 1015.58 1015.79 1016.07 1016.42 1016.84 1017.32 1017.83 1018.36 1018.90 1019.42 1019.91 1020.38 1020.81 1021.21 1021.58 1021.92 1022.23 1022.51 1022.76 1022.99 1023.18 1023.34 1023.45 1023.51 1023.51 1023.46 1023.34 1023.18 1022.98 1022.75
1012.28 1012.45 1012.69 1013.01 1013.37 1013.75 1014.11 1014.43 1014.70 1014.90 1015.04 1015.15 1015.26 1015.38 1015.54 1015.76 1016.06 1016.44 1016.88 1017.38 1017.92 1018.48 1019.04 1019.58 1020.09 1020.57 1021.01 1021.41 1021.78 1022.11 1022.42 1022.70 1022.95 1023.18 1023.38 1023.54 1023.65 1023.71 1023.71 1023.65 1023.52 1023.35 1023.13
1011.65 1011.85 1012.12 1012.46 1012.85 1013.27 1013.68 1014.06 1014.37 1014.63 1014.81 1014.95 1015.06 1015.18 1015.32 1015.51 1015.78 1016.12 1016.54 1017.03 1017.56 1018.13 1018.70 1019.26 1019.80 1020.29 1020.75 1021.15 1021.52 1021.86 1022.16 1022.45 1022.72 1022.98 1023.21 1023.42 1023.60 1023.73 1023.80 1023.81 1023.75 1023.62 1023.44
1011.01 1011.22 1011.50 1011.86 1012.27 1012.72 1013.16 1013.58 1013.96 1014.26 1014.50 1014.68 1014.82 1014.95 1015.10 1015.29 1015.55 1015.88 1016.29 1016.76 1017.29 1017.86 1018.43 1018.99 1019.52 1020.01 1020.45 1020.84 1021.19 1021.50 1021.79 1022.06 1022.34 1022.61 1022.87 1023.13 1023.37 1023.57 1023.73 1023.82 1023.85 1023.80 1023.68
1010.38 1010.60 1010.88 1011.24 1011.66 1012.11 1012.58 1013.03 1013.44 1013.79 1014.08 1014.31 1014.50 1014.68 1014.86 1015.07 1015.33 1015.67 1016.08 1016.56 1017.08 1017.64 1018.20 1018.75 1019.27 1019.74 1020.15 1020.51 1020.82 1021.10 1021.36 1021.61 1021.87 1022.13 1022.42 1022.71 1023.00 1023.27 1023.51 1023.70 1023.82 1023.86 1023.83
1009.79 1009.99 1010.27 1010.61 1011.02 1011.47 1011.94 1012.41 1012.85 1013.24 1013.58 1013.86 1014.11 1014.33 1014.55 1014.81 1015.10 1015.46 1015.88 1016.36 1016.88 1017.44 1017.99 1018.53 1019.03 1019.48 1019.86 1020.19 1020.47 1020.71 1020.93 1021.15 1021.38 1021.64 1021.92 1022.23 1022.56 1022.89 1023.19 1023.47 1023.68 1023.83 1023.89
1009.23 1009.41 1009.65 1009.97 1010.35 1010.78 1011.25 1011.72 1012.18 1012.60 1012.98 1013.32 1013.62 1013.91 1014.18 1014.48 1014.81 1015.20 1015.64 1016.13 1016.65 1017.21 1017.76 1018.29 1018.78 1019.22 1019.59 1019.90 1020.16 1020.37 1020.56 1020.76 1020.96 1021.19 1021.47 1021.77 1022.11 1022.47 1022.83 1023.17 1023.46 1023.70 1023.86
1008.69 1008.82 1009.02 1009.29 1009.64 1010.05 1010.50 1010.97 1011.45 1011.90 1012.32 1012.71 1013.07 1013.41 1013.74 1014.08 1014.45 1014.86 1015.32 1015.82 1016.36 1016.91 1017.47 1018.01 1018.50 1018.94 1019.32 1019.63 1019.89 1020.10 1020.28 1020.46 1020.64 1020.85 1021.10 1021.39 1021.72 1022.08 1022.46 1022.84 1023.19 1023.49 1023.74
1008.13 1008.20 1008.35 1008.58 1008.89 1009.27 1009.71 1010.18 1010.67 1011.15 1011.61 1012.05 1012.47 1012.86 1013.24 1013.62 1014.03 1014.46 1014.94 1015.44 1015.99 1016.55 1017.11 1017.66 1018.17 1018.64 1019.04 1019.38 1019.66 1019.90 1020.09 1020.26 1020.44 1020.63 1020.85 1021.12 1021.42 1021.76 1022.13 1022.51 1022.88 1023.22 1023.52
1007.56 1007.56 1007.65 1007.83 1008.10 1008.46 1008.88 1009.36 1009.87 1010.38 1010.89 1011.38 1011.84 1012.28 1012.71 1013.13 1013.56 1014.01 1014.50 1015.01 1015.55 1016.11 1016.69 1017.25 1017.80 1018.30 1018.74 1019.13 1019.46 1019.73 1019.96 1020.15 1020.33 1020.52 1020.72 1020.95 1021.22 1021.52 1021.85 1022.20 1022.55 1022.90 1023.22
1006.99 1006.92 1006.95 1007.08 1007.32 1007.65 1008.07 1008.55 1009.08 1009.63 1010.18 1010.72 1011.24 1011.73 1012.19 1012.65 1013.10 1013.56 1014.04 1014.54 1015.08 1015.64 1016.22 1016.80 1017.37 1017.91 1018.41 1018.85 1019.24 1019.57 1019.84 1020.08 1020.28 1020.47 1020.66 1020.86 1021.09 1021.33 1021.61 1021.91 1022.22 1022.53 1022.83
1006.46 1006.32 1006.29 1006.38 1006.58 1006.90 1007.31 1007.81 1008.36 1008.94 1009.54 1010.12 1010.68 1011.21 1011.72 1012.19 1012.66 1013.12 1013.59 1014.09 1014.61 1015.16 1015.74 1016.32 1016.91 1017.48 1018.02 1018.52 1018.96 1019.35 1019.69 1019.97 1020.21 1020.42 1020.61 1020.79 1020.98 1021.17 1021.39 1021.62 1021.86 1022.12 1022.37
Thickness
5782 5781 5780 5779 5779 5779 5779 5777 5776 5775 5773 5773 5772 5771 5770 5769 5768 5768 5766 5762 5759 5758 5757 5755 5754 5752 5750 5748 5746 5744 5743 5741 5739 5738 5736 5735 5734 5733 5732 5731 5730 5730 5729
5781 5780 5779 5778 5779 5778 5778 5777 5776 5774 5773 5772 5771 5770 5769 5769 5768 5766 5766 5764 5760 5758 5757 5755 5754 5752 5750 5748 5746 5744 5742 5741 5739 5738 5736 5735 5733 5732 5731 5731 5730 5729 5728
5780 5779 5779 5778 5778 5777 5776 5775 5774 5774 5773 5772 5770 5770 5769 5768 5768 5766 5766 5766 5764 5760 5757 5756 5754 5752 5750 5748 5746 5744 5742 5741 5739 5737 5736 5734 5733 5732 5731 5730 5729 5728 5726
5779 5778 5778 5778 5776 5777 5776 5774 5774 5772 5771 5770 5769 5768 5768 5767 5767 5766 5766 5765 5764 5763 5759 5755 5753 5751 5749 5748 5746 5744 5742 5740 5738 5737 5735 5734 5733 5731 5730 5729 5728 5726 5725
5778 5778 5777 5776 5775 5775 5775 5775 5773 5770 5768 5767 5767 5766 5767 5767 5766 5766 5765 5764 5763 5761 5760 5755 5752 5750 5749 5747 5745 5744 5742 5740 5738 5737 5735 5734 5732 5731 5730 5728 5727 5726 5724
5778 5777 5776 5774 5774 5774 5772 5771 5768 5767 5766 5765 5766 5765 5765 5766 5766 5765 5764 5764 5762 5760 5758 5756 5753 5751 5748 5746 5744 5743 5741 5739 5738 5737 5735 5733 5732 5730 5729 5727 5726 5724 5723
5777 5776 5776 5774 5773 5772 5770 5770 5768 5765 5764 5764 5762 5761 5763 5765 5764 5762 5762 5762 5760 5758 5756 5754 5753 5751 5749 5745 5743 5742 5740 5739 5737 5735 5734 5732 5731 5729 5728 5726 5725 5723 5722
5777 5777 5774 5773 5772 5770 5768 5767 5765 5764 5763 5763 5759 5757 5755 5757 5758 5762 5759 5757 5757 5756 5754 5753 5750 5747 5747 5746 5743 5740 5739 5737 5736 5734 5733 5731 5730 5728 5726 5725 5723 5722 5721
5776 5774 5773 5772 5770 5770 5767 5764 5763 5761 5759 5760 5760 5756 5751 5748 5751 5756 5755 5755 5753 5752 5752 5750 5747 5745 5744 5743 5741 5738 5736 5735 5734 5732 5731 5729 5728 5727 5725 5723 5721 5720 5719
5775 5774 5772 5770 5769 5769 5765 5764 5763 5761 5757 5756 5757 5757 5755 5754 5748 5746 5750 5752 5751 5748 5748 5748 5746 5743 5741 5739 5737 5735 5733 5732 5731 5730 5729 5727 5726 5725 5723 5721 5720 5718 5717
5774 5773 5771 5769 5767 5767 5765 5762 5760 5759 5758 5756 5755 5755 5753 5751 5751 5745 5742 5743 5745 5746 5745 5743 5743 5741 5739 5736 5734 5732 5730 5729 5728 5727 5726 5725 5724 5723 5721 5719 5717 5715 5714
5773 5772 5770 5768 5766 5765 5763 5761 5759 5758 5756 5755 5754 5753 5751 5749 5746 5743 5740 5738 5739 5741 5742 5740 5740 5738 5735 5733 5730 5727 5725 5724 5723 5723 5722 5722 5721 5720 5718 5716 5714 5713 5712
5772 5769 5769 5766 5765 5762 5760 5759 5756 5756 5754 5751 5750 5750 5749 5748 5747 5743 5739 5736 5735 5737 5737 5737 5736 5734 5732 5730 5727 5723 5721 5720 5719 5718 5718 5717 5717 5716 5714 5713 5711 5710 5709
5771 5769 5766 5764 5762 5760 5759 5756 5756 5754 5751 5750 5749 5747 5746 5746 5745 5742 5737 5733 5730 5731 5731 5731 5733 5732 5729 5726 5723 5720 5718 5716 5715 5714 5713 5712 5712 5711 5710 5708 5707 5706 5705
5769 5765 5763 5761 5759 5756 5754 5753 5752 5749 5748 5747 5746 5744 5743 5742 5741 5739 5736 5732 5727 5723 5724 5726 5726 5727 5724 5721 5717 5716 5715 5711 5710 5709 5708 5707 5707 5706 5705 5703 5702 5701 5701
5764 5761 5759 5757 5755 5752 5750 5748 5747 5745 5743 5741 5740 5738 5736 5738 5736 5734 5731 5729 5727 5723 5720 5724 5722 5722 5719 5718 5713 5711 5710 5707 5706 5704 5703 5702 5702 5701 5699 5698 5697 5696 5696
5760 5757 5755 5753 5751 5749 5747 5744 5743 5740 5738 5736 5735 5733 5731 5730 5730 5729 5726 5724 5722 5720 5716 5718 5718 5716 5712 5710 5708 5707 5706 5704 5703 5700 5699 5697 5696 5695 5694 5693 5691 5691 5690
5756 5754 5752 5749 5747 5745 5743 5740 5738 5736 5733 5731 5729 5728 5726 5726 5722 5722 5720 5719 5717 5715 5712 5708 5709 5708 5705 5703 5702 5701 5702 5701 5699 5696 5695 5693 5692 5690 5689 5688 5686 5685 5684
5752 5751 5748 5745 5743 5741 5738 5736 5734 5731 5729 5727 5725 5722 5720 5718 5716 5716 5713 5713 5712 5711 5707 5704 5702 5702 5700 5699 5697 5697 5697 5695 5695 5693 5690 5689 5687 5685 5684 5682 5681 5680 5679
5747 5745 5743 5741 5739 5737 5734 5732 5729 5726 5724 5722 5720 5718 5716 5713 5711 5709 5708 5705 5704 5702 5700 5698 5696 5695 5693 5693 5692 5691 5691 5690 5690 5691 5687 5685 5683 5681 5679 5678 5676 5675 5674
5743 5740 5737 5736 5734 5733 5730 5727 5724 5722 5718 5716 5715 5713 5711 5708 5705 5703 5702 5699 5697 5695 5694 5692 5690 5690 5688 5685 5685 5687 5686 5685 5685 5684 5683 5683 5681 5680 5677 5674 5672 5670 5669
5737 5734 5732 5730 5729 5728 5723 5719 5717 5717 5714 5711 5709 5707 5706 5702 5699 5695 5692 5690 5687 5686 5686 5685 5685 5682 5679 5680 5679 5680 5679 5677 5676 5679 5676 5678 5678 5676 5675 5673 5668 5666 5664
5731 5728 5726 5724 5722 5720 5716 5712 5710 5710 5709 5706 5704 5701 5701 5700 5695 5692 5687 5682 5680 5678 5676 5676 5677 5675 5674 5674 5672 5672 5670 5670 5669 5672 5670 5671 5672 5671 5671 5668 5664 5661 5660
5725 5723 5721 5719 5716 5714 5709 5706 5703 5703 5703 5701 5699 5696 5693 5692 5691 5686 5684 5680 5678 5675 5672 5671 5670 5669 5668 5666 5666 5666 5665 5665 5665 5666 5664 5664 5666 5666 5667 5664 5659 5657 5655
5719 5718 5717 5714 5710 5707 5703 5700 5696 5698 5697 5696 5694 5692 5689 5685 5681 5677 5676 5674 5672 5671 5668 5665 5663 5662 5660 5658 5658 5660 5660 5660 5661 5662 5660 5659 5661 5661 5661 5660 5656 5653 5651
5713 5712 5710 5708 5706 5703 5698 5694 5690 5694 5693 5691 5689 5686 5682 5679 5674 5670 5670 5669 5666 5666 5665 5662 5658 5656 5656 5655 5652 5652 5654 5654 5655 5655 5656 5653 5655 5655 5653 5655 5654 5650 5648